Weather Service Report


718 
ASUS44 KEWX 041911
RWRTX 
SOUTH TEXAS REGIONAL WEATHER ROUNDUP
NATIONAL WEATHER SERVICE AUSTIN/SAN ANTONIO TX
200 PM CDT WED MAY 04 2016

NOTE: "FAIR" INDICATED FEW OR NO CLOUDS BELOW 12,000 FEET WITH NO
SIGNIFICANT WEATHER AND/OR OBSTRUCTIONS TO VISIBILITY.

* - THESE STATIONS ARE NOT NWS OR FAA STATIONS...AND ARE NOT SUBJECT
    TO NWS AND FAA QUALITY CONTROL.
 
TXZ171-172-183>190-042000-
TEXAS HILL COUNTRY AND EDWARDS PLATEAU
  
CITY           SKY/WX    TMP DP  RH WIND       PRES   REMARKS
JUNCTION       SUNNY     82  46  28 NW9       30.11F                  
*LLANO         SUNNY     81  46  30 N13G18    30.11F                  
BURNET         SUNNY     79  46  31 W10G18    30.10F                  
*HORSESHOE BAY SUNNY     81  51  35 N12G17    30.08F                  
*KERRVILLE     SUNNY     79  49  35 NW9       30.10F                  
*FREDERICKSBRG SUNNY     78  47  33 W7G18     30.09F                  
*ROCKSPRINGS   MOSUNNY   81  45  28 NW13G18   30.15F                  
*BOERNE STAGE  MOSUNNY   79  50  36 NW7       30.09F                  
*CASTROVILLE   SUNNY     84  46  26 NW6       30.08F                  
HONDO          SUNNY     83  52  34 W9G16     30.09F                  
*UVALDE        SUNNY     83  48  29 NW12G17   30.09F                  
DEL RIO        SUNNY     84  46  26 MISG      30.09F                  
LAUGHLIN AFB   MOSUNNY   83  49  30 VRB1      30.09F                  
CARRIZO SPRGS  SUNNY     84  50  30 CALM      30.07F                  
*EAGLE PASS    CLEAR     84  50  30 VRB6G12   30.09F                  
$$

TXZ173-191>194-202-209-217>225-228-042000-
CENTRAL AND SOUTH CENTRAL TEXAS
  
CITY           SKY/WX    TMP DP  RH WIND       PRES   REMARKS
GEORGETOWN     MOSUNNY   81  54  39 NW12G18   30.05F                  
AUSTIN/BERGSTM MOSUNNY   82  54  37 N13G20    30.04F                  
AUSTIN/MABRY   SUNNY     83  50  31 W10G17    30.06F                  
*AUSTIN/EXEC   SUNNY     82  50  32 NW10G20   30.05F                  
*LAGO VISTA    SUNNY     82  48  30 NW8       30.08F                  
SAN MARCOS     MOSUNNY   84  52  32 NW8G17    30.06F                  
NEW BRAUNFELS  MOSUNNY   84  53  34 NW13G18   30.04F                  
RANDOLPH AFB   MOSUNNY   82  52  35 W12       30.05F                  
PT SAN ANTONIO SUNNY     83  53  35 NW10      30.05F                  
SAN ANTONIO    MOSUNNY   83  52  34 NW6       30.06F                  
STINSON FIELD  SUNNY     85  49  28 NW10      30.04F                  
*PLEASANTON    SUNNY     84  48  28 NW7       30.07F                  
*LA GRANGE       N/A     80  57  45 N6        30.03F                  
*GIDDINGS      SUNNY     79  49  35 NW5       30.08F                  
*GONZALES      SUNNY     82  57  41 N3        30.04F                  
$$

TXZ163>164-176>182-195>201-210>213-226-227-235-042000-
SOUTHEAST TEXAS
  
CITY           SKY/WX    TMP DP  RH WIND       PRES   REMARKS
COLLEGE STN    SUNNY     80  52  37 NW12G18   30.03F                  
*BRYAN         SUNNY     79  54  42 NW9       30.05F                  
*CALDWELL      SUNNY     79  52  38 CALM      30.07F                  
*CROCKETT      MOSUNNY   77  55  47 W9G16     30.04F                  
*BRENHAM       SUNNY     80  54  39 W7        30.04F                  
HUNTSVILLE     SUNNY     78  51  38 NW10G17   30.02F                  
CONROE         SUNNY     78  52  40 NW9G17    30.03F                  
HOUSTON BUSH   MOSUNNY   79  53  40 NW12G20   30.02F                  
HOUSTON HOBBY  MOSUNNY   80  49  33 NW9       30.01F                  
*HOUSTON SW AP SUNNY     78  51  39 NW5G17    30.03F                  
PEARLAND       SUNNY     82  48  30 VRB7      30.03F                  
HOUSTON HOOKS  SUNNY     79  53  40 NW10G17   30.03F                  
ELLINGTON FLD  MOSUNNY   79  48  34 NW7       30.03F                  
SUGAR LAND     SUNNY     78  52  40 N12       30.03F                  
*HOUSTON EXEC  SUNNY     77  54  44 N6        30.05F                  
*CLEVELAND MUN SUNNY     80  55  43 N10       30.02F                  
*WHARTON       SUNNY     80  53  39 NW8       30.05F                  
*COLUMBUS      FAIR      78  55  44 NW8       30.04F                  
*EAGLE LAKE    CLEAR     79  52  39 N6        30.04F                  
$$

TXZ214>216-236>238-042000-
THE UPPER TEXAS COAST
  
CITY           SKY/WX    TMP DP  RH WIND       PRES   REMARKS
*ORANGE        SUNNY     77  40  26 NW8       30.01F                  
PORT ARTHUR    SUNNY     80  50  34 NW13G18   29.99F                  
GALVESTON      SUNNY     77  54  44 N12       30.03F                  
ANGLETON       SUNNY     80  53  39 N8        30.03F                  
*BAY CITY      SUNNY     79  54  41 NW10      30.04F                  
PALACIOS       SUNNY     81  53  37 NW9G18    30.04F                  
$$

TXZ229>234-239>247-042000-
TEXAS COASTAL BEND AND RIO GRANDE PLAINS
  
CITY           SKY/WX    TMP DP  RH WIND       PRES   REMARKS
VICTORIA       SUNNY     82  51  34 VRB6      30.05F                  
*BEEVILLE      SUNNY     86  51  30 N5        30.05F                  
ROCKPORT       SUNNY     81  50  33 E8        30.05F                  
*PORT ARANSAS  SUNNY     78  55  43 E9        30.06F                  
*PORT LAVACA   SUNNY     80  57  46 NW7       30.05F                  
*INGLESIDE     SUNNY     80  44  28 NE6       30.05F                  
CORPUS CHRISTI MOSUNNY   85  47  26 N6        30.05F                  
CORPUS NAS     MOSUNNY   81  55  40 VRB7      30.05F                  
*ROBSTOWN      SUNNY     85  49  28 NE8       30.05F                  
ALICE          SUNNY     85  37  18 VRB3      30.04F                  
KINGSVILLE NAS MOSUNNY   86  51  29 NE8       30.04F                  
COTULLA        SUNNY     89  40  17 N6        30.06F                  
*FAITH RANCH     N/A    N/A N/A N/A MISG        N/A                   
LAREDO         SUNNY     86  53  32 N7        30.06F                  
$$

TXZ248>255-042000-
DEEP SOUTH TEXAS
  
CITY           SKY/WX    TMP DP  RH WIND       PRES   REMARKS
BROWNSVILLE    SUNNY     83  55  38 N15G21    30.06F                  
PORT ISABEL    SUNNY     81  60  48 NE14G22   30.05F                  
*SOUTH PADRE     N/A     77  61  57 N14       30.06F                  
HARLINGEN      SUNNY     86  50  28 CALM      30.05F                  
*HEBBRONVILLE  SUNNY     87  38  17 N10       30.06F                  
MCALLEN        SUNNY     90  47  22 NE7G17    30.06F                  
*WESLACO       SUNNY     85  48  27 NE3       30.05F                  
FALFURRIAS     SUNNY     88  36  15 NE12      30.03F                  
EDINBURG       SUNNY     89  39  17 N7G16     30.05F                  
*ZAPATA        SUNNY     87  49  26 CALM      30.04F                  
$$

TXZ213>215-236>238-242>244-246-247-251-254-255-042000-
CMAN STATIONS
  
STATION/POSITION TIME  TEMP    WIND        PRES    WAVE
                       AIR SEA DIR/SP/G            HT/PER
                 (UTC) (F)     (DEG/KT/KT) (MB)    (FT/S)
SABINE PASS      1800   74 76  320/  5/ 11 1018.0
SEA RIM ST PARK  1900   76     310/ 11/ 14 1016.4
NORTH JETTY/GLS  1800   74 76                N/A
EAGLE POINT      1800   73 68   30/  9/ 12 1017.3
MORGANS POINT    1800   75 71  300/  8/ 11 1017.2
MISSION/ARANSAS  1800   77                 1019.0
PORT O'CONNOR    1800          320/  6/  7   N/A
PORT ARANSAS     1900   73 77   70/  7/  8 1018.7
MALAQUITE BEACH  1800   73 77   30/ 10/ 12 1018.6
BAFFIN BAY       1800   76 75   30/ 11/ 12 1018.6
PORT ISABEL      1800   75 75              1018.3
$$

GMZ080-GMZ150>470-042000-
OFFSHORE BUOY REPORTS
  
STATION/POSITION TIME  TEMP    WIND        PRES    WAVE
                       AIR SEA DIR/SP/G            HT/PER
                 (UTC) (F)     (DEG/KT/KT) (MB)    (FT/S)
20 E GALVESTON   1850   71 76  280/  6/  8 1016.5    1/ 7
90 E PT ARANSAS  1850   71 77  360/ 12/ 14 1017.4    3/ 5
35 NE PT MANSFLD 1850   72 75   30/ 14/ 17 1017.3    4/ 5
200 E PT ISABEL  1850                        N/A     5/ 6
$$
  

Return to Home page


Western Regional Climate Center, wrcc@dri.edu